• Em Portugal
  • Lista de países
  • Para 7 dias
  • Temperatura da água
  • Mapas de satélite
  • Mapa do tempo
  • Widgets de tempo
  • user-avatar
    Iniciar Sessão

    Previsão horária em Jablow

    Hoje, 22 Abril, Domingo

    Tempo Temperatura Precipitação Vento Pressão Humidade
    00:00 +11°C° 0 mm 1 m/s 716 mmHg 81%
    01:00 +10°C° 0 mm 1 m/s 716 mmHg 81%
    02:00 +10°C° 0 mm 1 m/s 716 mmHg 80%
    03:00 +9°C° 0 mm 1 m/s 716 mmHg 80%
    04:00 +9°C° 0 mm 1 m/s 716 mmHg 79%
    05:00 +10°C° 0 mm 1 m/s 716 mmHg 75%
    06:00 +11°C° 0 mm 1 m/s 716 mmHg 71%
    07:00 +12°C° 0 mm 1 m/s 716 mmHg 67%
    08:00 +14°C° 0 mm 1 m/s 717 mmHg 62%
    09:00 +16°C° 0 mm 1 m/s 717 mmHg 57%
    10:00 +19°C° 0 mm 1 m/s 717 mmHg 51%
    11:00 +20°C° 0 mm 1 m/s 717 mmHg 49%
    12:00 +20°C° 0 mm 1 m/s 716 mmHg 46%
    13:00 +21°C° 0 mm 1 m/s 716 mmHg 44%
    14:00 +20°C° 0 mm 2 m/s 716 mmHg 44%
    15:00 +20°C° 0 mm 2 m/s 715 mmHg 45%
    16:00 +20°C° 0 mm 2 m/s 715 mmHg 46%
    17:00 +18°C° 0 mm 2 m/s 715 mmHg 53%
    18:00 +16°C° 0 mm 2 m/s 714 mmHg 60%
    19:00 +14°C° 0 mm 1 m/s 714 mmHg 67%
    20:00 +14°C° 0 mm 2 m/s 714 mmHg 69%
    21:00 +13°C° 0 mm 2 m/s 714 mmHg 70%
    22:00 +12°C° 0 mm 2 m/s 714 mmHg 72%
    23:00 +12°C° 0,2 mm 2 m/s 714 mmHg 73%

    Amanhã, 23 Abril, Segunda-feira

    Tempo Temperatura Precipitação Vento Pressão Humidade
    00:00 +12°C° 0,2 mm 2 m/s 714 mmHg 75%
    01:00 +12°C° 0,2 mm 2 m/s 714 mmHg 77%
    02:00 +12°C° 0,2 mm 2 m/s 713 mmHg 79%
    03:00 +12°C° 0,2 mm 2 m/s 713 mmHg 81%
    04:00 +12°C° 0,2 mm 2 m/s 713 mmHg 83%
    05:00 +13°C° 0,1 mm 2 m/s 713 mmHg 82%
    06:00 +14°C° 0,1 mm 2 m/s 713 mmHg 80%
    07:00 +15°C° 0,1 mm 2 m/s 713 mmHg 79%
    08:00 +17°C° 0 mm 3 m/s 713 mmHg 73%
    09:00 +19°C° 0 mm 4 m/s 713 mmHg 67%
    10:00 +20°C° 0 mm 5 m/s 713 mmHg 61%
    11:00 +21°C° 0,1 mm 5 m/s 713 mmHg 58%
    12:00 +21°C° 0,1 mm 6 m/s 713 mmHg 55%
    13:00 +22°C° 0,1 mm 6 m/s 713 mmHg 52%
    14:00 +21°C° 0,6 mm 6 m/s 713 mmHg 59%
    15:00 +19°C° 0,6 mm 5 m/s 713 mmHg 65%
    16:00 +17°C° 0,6 mm 5 m/s 713 mmHg 72%
    17:00 +17°C° 0,3 mm 4 m/s 713 mmHg 77%
    18:00 +15°C° 0,3 mm 4 m/s 713 mmHg 81%
    19:00 +13°C° 0,3 mm 3 m/s 713 mmHg 86%
    20:00 +12°C° 0 mm 3 m/s 714 mmHg 87%
    21:00 +11°C° 0 mm 3 m/s 714 mmHg 88%
    22:00 +10°C° 0 mm 3 m/s 714 mmHg 90%
    23:00 +9°C° 0 mm 2 m/s 714 mmHg 90%

    Depois de amanhã, 24 Abril, Terça-feira

    Tempo Temperatura Precipitação Vento Pressão Humidade
    00:00 +9°C° 0 mm 2 m/s 715 mmHg 90%
    01:00 +8°C° 0 mm 2 m/s 715 mmHg 91%
    02:00 +8°C° 0 mm 2 m/s 715 mmHg 91%
    03:00 +7°C° 0 mm 2 m/s 715 mmHg 91%
    04:00 +7°C° 0 mm 2 m/s 716 mmHg 91%
    05:00 +8°C° 0 mm 2 m/s 716 mmHg 87%
    06:00 +8°C° 0 mm 3 m/s 716 mmHg 83%
    07:00 +9°C° 0 mm 3 m/s 716 mmHg 78%
    08:00 +11°C° 0 mm 3 m/s 717 mmHg 72%
    09:00 +12°C° 0 mm 4 m/s 717 mmHg 65%
    10:00 +13°C° 0 mm 4 m/s 717 mmHg 58%
    11:00 +14°C° 0 mm 4 m/s 716 mmHg 56%
    12:00 +15°C° 0 mm 4 m/s 716 mmHg 54%
    13:00 +17°C° 0 mm 4 m/s 716 mmHg 52%
    14:00 +17°C° 0 mm 4 m/s 716 mmHg 51%
    15:00 +18°C° 0 mm 4 m/s 715 mmHg 51%
    16:00 +18°C° 0 mm 4 m/s 715 mmHg 50%
    17:00 +17°C° 0 mm 3 m/s 715 mmHg 56%
    18:00 +15°C° 0 mm 2 m/s 714 mmHg 62%
    19:00 +14°C° 0 mm 2 m/s 714 mmHg 68%
    20:00 +13°C° 0 mm 2 m/s 714 mmHg 71%
    21:00 +12°C° 0 mm 2 m/s 714 mmHg 74%
    22:00 +10°C° 0 mm 2 m/s 714 mmHg 76%
    23:00 +10°C° 0 mm 2 m/s 714 mmHg 78%

    25 Abril, Quarta-feira

    Tempo Temperatura Precipitação Vento Pressão Humidade
    00:00 +9°C° 0 mm 2 m/s 714 mmHg 79%
    01:00 +9°C° 0 mm 2 m/s 714 mmHg 80%
    02:00 +9°C° 0 mm 2 m/s 713 mmHg 81%
    03:00 +8°C° 0 mm 2 m/s 713 mmHg 82%
    04:00 +8°C° 0 mm 2 m/s 713 mmHg 84%
    05:00 +9°C° 0 mm 3 m/s 713 mmHg 79%
    06:00 +11°C° 0 mm 3 m/s 713 mmHg 74%
    07:00 +12°C° 0 mm 4 m/s 713 mmHg 70%
    08:00 +14°C° 0 mm 5 m/s 712 mmHg 65%
    09:00 +15°C° 0 mm 6 m/s 712 mmHg 60%
    10:00 +17°C° 0 mm 7 m/s 712 mmHg 55%
    11:00 +18°C° 0 mm 7 m/s 712 mmHg 51%
    12:00 +20°C° 0 mm 7 m/s 712 mmHg 48%
    13:00 +21°C° 0 mm 8 m/s 711 mmHg 45%
    14:00 +21°C° 0,1 mm 7 m/s 711 mmHg 49%
    15:00 +20°C° 0,1 mm 6 m/s 711 mmHg 52%
    16:00 +20°C° 0,1 mm 6 m/s 710 mmHg 55%
    17:00 +17°C° 0,1 mm 5 m/s 710 mmHg 62%
    18:00 +17°C° 0,1 mm 4 m/s 710 mmHg 68%
    19:00 +14°C° 0,1 mm 3 m/s 710 mmHg 75%
    20:00 +13°C° 0 mm 3 m/s 711 mmHg 79%
    21:00 +11°C° 0 mm 3 m/s 711 mmHg 83%
    22:00 +10°C° 0 mm 2 m/s 712 mmHg 88%
    23:00 +10°C° 0 mm 2 m/s 712 mmHg 89%

    26 Abril, Quinta-feira

    Tempo Temperatura Precipitação Vento Pressão Humidade
    00:00 +9°C° 0 mm 2 m/s 712 mmHg 91%
    01:00 +9°C° 0 mm 2 m/s 712 mmHg 92%
    02:00 +8°C° 0 mm 2 m/s 712 mmHg 93%
    03:00 +9°C° 0 mm 1 m/s 713 mmHg 94%
    04:00 +8°C° 0 mm 1 m/s 713 mmHg 94%
    05:00 +8°C° 0 mm 2 m/s 713 mmHg 90%
    06:00 +10°C° 0 mm 2 m/s 713 mmHg 86%
    07:00 +12°C° 0 mm 2 m/s 713 mmHg 82%
    08:00 +12°C° 0 mm 3 m/s 713 mmHg 73%
    09:00 +14°C° 0 mm 3 m/s 713 mmHg 65%
    10:00 +15°C° 0 mm 4 m/s 713 mmHg 57%
    11:00 +15°C° 0 mm 4 m/s 713 mmHg 55%
    12:00 +17°C° 0 mm 4 m/s 713 mmHg 52%
    13:00 +17°C° 0 mm 4 m/s 713 mmHg 50%
    14:00 +15°C° 0,1 mm 4 m/s 713 mmHg 56%
    15:00 +14°C° 0,1 mm 4 m/s 712 mmHg 61%
    16:00 +13°C° 0,1 mm 3 m/s 712 mmHg 67%
    17:00 +12°C° 0 mm 3 m/s 713 mmHg 70%
    18:00 +11°C° 0 mm 3 m/s 713 mmHg 73%
    19:00 +10°C° 0 mm 2 m/s 713 mmHg 76%
    20:00 +9°C° 0 mm 2 m/s 713 mmHg 76%
    21:00 +9°C° 0 mm 2 m/s 713 mmHg 76%
    22:00 +8°C° 0 mm 2 m/s 714 mmHg 77%
    23:00 +8°C° 0 mm 2 m/s 713 mmHg 76%

    27 Abril, Sexta-feira

    Tempo Temperatura Precipitação Vento Pressão Humidade
    00:00 +7°C° 0 mm 2 m/s 713 mmHg 76%
    01:00 +7°C° 0 mm 2 m/s 713 mmHg 76%
    02:00 +6°C° 0 mm 2 m/s 713 mmHg 76%
    03:00 +7°C° 0 mm 1 m/s 713 mmHg 77%
    04:00 +7°C° 0 mm 1 m/s 713 mmHg 78%
    05:00 +7°C° 0 mm 1 m/s 714 mmHg 78%
    06:00 +6°C° 0 mm 2 m/s 714 mmHg 77%
    07:00 +7°C° 0 mm 2 m/s 714 mmHg 77%
    08:00 +7°C° 0,1 mm 2 m/s 714 mmHg 73%
    09:00 +8°C° 0,1 mm 2 m/s 714 mmHg 69%
    10:00 +9°C° 0,1 mm 2 m/s 714 mmHg 66%
    11:00 +9°C° 0,1 mm 2 m/s 714 mmHg 63%
    12:00 +10°C° 0,1 mm 2 m/s 714 mmHg 60%
    13:00 +10°C° 0,1 mm 2 m/s 714 mmHg 57%
    14:00 +12°C° 0,2 mm 1 m/s 714 mmHg 55%
    15:00 +12°C° 0,2 mm 1 m/s 714 mmHg 54%
    16:00 +13°C° 0,2 mm 1 m/s 714 mmHg 52%
    17:00 +11°C° 0,1 mm 1 m/s 714 mmHg 59%
    18:00 +10°C° 0,1 mm 1 m/s 713 mmHg 65%
    19:00 +8°C° 0,1 mm 1 m/s 713 mmHg 71%
    20:00 +7°C° 0 mm 1 m/s 714 mmHg 74%
    21:00 +7°C° 0 mm 1 m/s 714 mmHg 77%
    22:00 +6°C° 0 mm 1 m/s 714 mmHg 79%
    23:00 +5°C° 0 mm 1 m/s 714 mmHg 80%
    Mostrar mais